Location: Christian Reformed Church
(43.0975°N, 93.8113°W)
Time: 23:27:45
(UTC+00:00)

Radarsat - Pass Details

Date: 13 December 2025
Orbit: 783 x 785 km, 98.5° (Epoch: 14 January)

Event Time Altitude Azimuth Distance (km) Brightness Sun altitude
Rises 23:34:00 0° 160° (SSE) 3,261 7.8 -9.5°
Reaches altitude 10° 23:36:18 10° 159° (SSE) 2,337 7.0 -9.9°
Maximum altitude 23:41:27 77° 74° (ENE) 810 4.5 -10.8°
Drops below altitude 10° 23:46:38 10° 349° (N) 2,353 6.9 -11.6°
Sets 23:48:58 0° 348° (NNW) 3,285 7.7 -12.0°
